Regional Weather Roundup
Issued by NWS

Home | Current Version | Previous Version | Graphics & Text | Print | Product List | Glossary On
Versions: 1 2 3 4 5 6 7 8 9 10 11 12 13 14 15 16 17 18 19 20 21 22 23 24 25 26 27 28 29 30 31 32 33 34 35 36 37 38 39 40 41 42 43 44 45 46 47 48 49 50
000
ASUS43 KIND 191909
RWRIN

WEATHER ROUNDUP FOR INDIANA
NATIONAL WEATHER SERVICE INDIANAPOLIS IN
300 PM EDT WED JUL 19 2017

NOTE: "FAIR" INDICATES FEW OR NO CLOUDS BELOW 12,000 FEET WITH NO
SIGNIFICANT WEATHER AND/OR OBSTRUCTIONS TO VISIBILITY.

* - STATION DOES NOT REPORT WEATHER SUCH AS PRECIPITATION OR FOG.

+ - STATION NOT QUALITY CONTROLLED BY THE NATIONAL WEATHER SERVICE.
    USE DATA WITH CAUTION...ESPECIALLY DEWPOINT AND RELATIVE
    HUMIDITY OBSERVATIONS.

INZ001>003-010>013-019-020-192000-
NORTHWEST INDIANA

CITY           SKY/WX    TMP DP  RH WIND       PRES   REMARKS
GARY /AIRPORT/ MOSUNNY   82  70  65 N10       30.10S
KNOX *+        PTSUNNY   84  61  45 SW6       30.08S
LA PORTE +     MOSUNNY   85  73  65 W7        30.10S
MICHIGAN CITY+ SUNNY     81  70  69 NW3       30.10S
MONTICELLO +   PTSUNNY   86  72  62 SW7       30.09F
RENSSELAER +   CLOUDY    86  70  58 NW6       30.09F
VALPARAISO     CLOUDY    89  74  60 E3        30.09F HX  98

$$

LMZ046-743>745-192000-
SOUTHERN LAKE MICHIGAN

STATION/POSITION TIME  TEMP    WIND        PRES    WAVE
                       AIR SEA DIR/SP/G            HT
                 (UTC) (F)     (DEG/KT/KT) (MB)    (FT)
BURNS HARBOR     1806   74      20/  6/  8 1019.6
MICHIGAN CITY    1840   76     350/  8/  8   N/A
5NW MICH CITY    1900   73 75  360/  8/  8   N/A     1

$$

INZ004-005-014>016-021>024-192000-
NORTH CENTRAL INDIANA

CITY           SKY/WX    TMP DP  RH WIND       PRES   REMARKS
ELKHART        MOSUNNY   88  70  55 SW12      30.08F
LOGANSPORT +   MOSUNNY   86  70  58 W8        30.10F
PERU/GRISSOM   MOSUNNY   85  71  61 SW3       30.08F
ROCHESTER +    MOSUNNY   90  70  51 SW6       30.10S HX  95
SOUTH BEND     MOSUNNY   87  71  58 W10       30.09S
WARSAW +       MOSUNNY   86  70  58 W9        30.09S

$$

INZ006>009-017-018-025>027-192000-
NORTHEAST INDIANA

CITY           SKY/WX    TMP DP  RH WIND       PRES   REMARKS
ANGOLA *+      MOSUNNY   88  84  89 SW8       30.08S HX 112
AUBURN +       SUNNY     88  68  51 SW5       30.09F
FORT WAYNE     MOSUNNY   87  70  56 SW7       30.09F
HUNTINGTON +   MOSUNNY   85  72  64 SW6       30.09F
KENDALLVILLE + SUNNY     87  70  56 W7        30.10S

$$

INZ028-029-035-036-043>045-051>053-192000-
WEST CENTRAL INDIANA

CITY           SKY/WX    TMP DP  RH WIND       PRES   REMARKS
GREENCASTLE +  MOSUNNY   81  73  78 CALM      30.13F
LAFAYETTE      PTSUNNY   85  73  67 SW6       30.09F
TERRE HAUTE    SUNNY     85  72  65 SE7       30.12F

$$

INZ030>032-037>040-046>048-054>057-064-065-192000-
CENTRAL INDIANA

CITY           SKY/WX    TMP DP  RH WIND       PRES   REMARKS
CP ATTERBURY + MOSUNNY   82  68  61 SW5       30.13F
COLUMBUS       CLOUDY    84  66  54 W6        30.13F
FRANKFORT +    CLOUDY    87  73  63 CALM      30.12F
GREENWOOD *+   MOSUNNY   85  69  59 SW6       30.13F
INDIANAPOLIS   MOSUNNY   87  71  58 VRB3      30.11F
-EAGLE CREEK   PTSUNNY   87  70  56 W5        30.11F
KOKOMO +       MOSUNNY   87  69  54 W3        30.11F
MT COMFORT *+  SUNNY     86  70  58 CALM      30.12F
SHELBYVILLE    MOSUNNY   87  68  52 W6        30.11F
ZIONSVILLE +   PTSUNNY   84  73  69 W6        30.12F

$$

INZ033-034-041-042-049-050-058-059-192000-
EAST CENTRAL INDIANA

CITY           SKY/WX    TMP DP  RH WIND       PRES   REMARKS
MUNCIE         MOSUNNY   88  71  57 VRB3      30.11F
RICHMOND +     SUNNY     82  64  54 SW6       30.14S

$$

INZ060-061-067>069-081>083-085>088-192000-
SOUTHWEST INDIANA

CITY           SKY/WX    TMP DP  RH WIND       PRES   REMARKS
EVANSVILLE     MOSUNNY   88  70  55 E9        30.11F
HUNTINGBURG *+ PTSUNNY   85  72  65 SW9       30.13F

$$

INZ062-063-066-070>080-084-089>092-192000-
SOUTH CENTRAL AND SOUTHEAST INDIANA

CITY           SKY/WX    TMP DP  RH WIND       PRES   REMARKS
BLOOMINGTON    CLOUDY    86  67  52 NE3       30.13F
MADISON *+     SUNNY     88  59  37 CALM      30.15S
NORTH VERNON + MOSUNNY   84  68  58 NW6       30.13F

$$





USA.gov is the U.S. government's official web portal to all federal, state and local government web resources and services.